Location: Clifton Park
(41.4873°N, 81.8024°W)
Time: 22:09:32
(UTC+00:00)

Cosmos 2181 Rocket - Pass Details

Date: 21 January 2020
Orbit: 953 x 1014 km, 82.9° (Epoch: 18 February)

Event Time Altitude Azimuth Distance (km) Brightness Sun altitude
Rises 11:06:53 0° 185° (S) 3,629 7.1 -18.8°
Reaches altitude 10° 11:09:21 10° 185° (S) 2,693 6.4 -18.4°
Maximum altitude 11:15:31 89° 104° (ESE) 981 4.0 -17.2°
Drops below altitude 10° 11:21:51 10° 8° (N) 2,752 6.3 -16.1°
Sets 11:24:24 0° 8° (N) 3,714 7.0 -15.6°
